AVUM R/B (49467 NORAD) Tracking and Keplerian Element Data

This shows tracking and keplerian element data for the satellite.

Feedback or suggestion? Click here.




ElementValue
Catalog49467
NameAVUM R/B
Epoch Orbit409
Epoch Day347.61389709
Epoch Year2021
RAAN92.9322
Inclination74.9555
Eccentricity0.0142232
Argument of Perigee148.5453
Mean Anonmoly212.4354
Mean Motion15.07091432
Decay Rate-3.4E-07
L11 49467U 21105D 21347.61389709 -.00000034 00000+0 41107-6 0 9995
L22 49467 74.9555 92.9322 0142232 148.5453 212.4354 15.07091432 4094

Live tracking and technical data element details for AVUM R/B (NORAD 49467). AVUM R/B can be tracked NOW for your location showing map with azimuth and elevation plus other details from your city location.

Track the satellite on the map from your city or location and see movement details for azimuth, elevation, latitude, longitude, range, height, and movement on the map or in text.







IsCatalogInMostPopularTable: catalog: 49467, numindb: 10
Update: records affected: 1



GetName: 49467 AVUM R/B

Hit Count: updated at: Thu, 20 Jan 2022 17:20:01 GMT